Regional Weather Roundup
Issued by NWS

Home | Current Version | Previous Version | Graphics & Text | Print | Product List | Glossary Off
Versions: 1 2 3 4 5 6 7 8 9 10 11 12 13 14 15 16 17 18 19 20 21 22 23 24 25 26 27 28 29 30 31 32 33 34 35 36 37 38 39 40 41 42 43 44 45 46 47 48 49 50

000
ASUS43 KDTX 131810
RWRMI
MICHIGAN HOURLY REGIONAL WEATHER ROUNDUP
NATIONAL WEATHER SERVICE DETROIT/PONTIAC MI
200 PM EDT SUN JUL 13 2014

NOTE: "FAIR" INDICATES FEW OR NO CLOUDS BELOW 12,000 FEET WITH NO
SIGNIFICANT WEATHER AND/OR OBSTRUCTION TO VISIBILITY.

MIZ047>049-052>055-059>063-066>070-074>076-081>083-131900-
SOUTHEAST LOWER MICHIGAN

CITY           SKY/WX    TMP DP  RH WIND       PRES   REMARKS
ADRIAN         PTSUNNY   79  64  60 NW9G20    29.91S
6HR MIN TEMP:  73; 6HR MAX TEMP:  80; 6HR PCP: TRACE;

ALMA           MOSUNNY   77  61  59 W12G21    29.88S
ANN ARBOR      PTSUNNY   80  64  58 W10       29.89S
BAD AXE        PTSUNNY   78  62  57 W17G23    29.83S
6HR MIN TEMP:  70; 6HR MAX TEMP:  78;

DETROIT CITY   PTSUNNY   83  61  47 W12       29.86S
6HR MIN TEMP:  73; 6HR MAX TEMP:  84; 6HR PCP:  0.08;

DETROIT        PTSUNNY   81  61  50 W12       29.88S
6HR MIN TEMP:  72; 6HR MAX TEMP:  81; 6HR PCP:  0.02;

FLINT          SUNNY     82  62  50 W16       29.86S
6HR MIN TEMP:  73; 6HR MAX TEMP:  83;

GROSSE ILE     PTSUNNY   81  66  61 W8        29.86S
HILLSDALE      PTSUNNY   76  65  69 CALM      29.93S
HOWELL         MOSUNNY   80  63  55 W13       29.88S
6HR MIN TEMP:  70; 6HR MAX TEMP:  80;


CITY           SKY/WX    TMP DP  RH WIND       PRES   REMARKS
JACKSON        PTSUNNY   78  65  63 W9        29.90F
6HR MIN TEMP:  70; 6HR MAX TEMP:  78;

LAMBERTVILLE   MOSUNNY   82  63  51 NW5       29.90S
LANSING        SUNNY     79  63  57 W14G23    29.89S
6HR MIN TEMP:  70; 6HR MAX TEMP:  80;

LAPEER         NOT AVBL
MASON          MOSUNNY   80  61  53 W15G22    29.89S
MONROE         MOSUNNY   81  64  57 NW10      29.87S
MT. CLEMENS    MOSUNNY   81  63  54 NW10      29.83F
6HR MIN TEMP:  72; 6HR MAX TEMP:  82; 6HR PCP:  0.02;

PONTIAC        PTSUNNY   81  62  52 W14       29.86S
6HR MIN TEMP:  72; 6HR MAX TEMP:  81; 6HR PCP: TRACE;

PORT HOPE        N/A     77  63  61 W9G17     29.80S
6HR MIN TEMP:  70; 6HR MAX TEMP:  79;

PORT HURON     MOSUNNY   81  63  54 W10G20    29.84S
TRI CITIES     MOSUNNY   79  61  53 NW16G23   29.86R
6HR MIN TEMP:  72; 6HR MAX TEMP:  80;

YPSILANTI      PTSUNNY   83  62  49 W10       29.88S
6HR MIN TEMP:  75; 6HR MAX TEMP:  84; 6HR PCP:  0.01;

$$
MIZ043>046-050>051-056>058-064>065-071>073-077>080-131900-
SOUTHWEST LOWER MICHIGAN

CITY           SKY/WX    TMP DP  RH WIND       PRES   REMARKS
BATTLE CREEK   SUNNY     79  64  60 W14       29.92S
6HR MIN TEMP:  70; 6HR MAX TEMP:  79;

BENTON HARBOR  MOSUNNY   73  66  78 W12       29.94S
6HR MIN TEMP:  66; 6HR MAX TEMP:  73;

BIG RAPIDS     PTSUNNY   76  61  59 W7        29.87S
6HR MIN TEMP:  65; 6HR MAX TEMP:  76;

COLDWATER      PTSUNNY   77  67  69 W12       29.93S
6HR MIN TEMP:  71; 6HR MAX TEMP:  78;

HOLLAND        MOSUNNY   74  66  76 W10       29.94S
6HR MIN TEMP:  67; 6HR MAX TEMP:  75;

GRAND RAPIDS   PTSUNNY   76  64  66 W13       29.91S
6HR MIN TEMP:  67; 6HR MAX TEMP:  77;

KALAMAZOO      MOSUNNY   80  63  55 NW12G23   29.92S
6HR MIN TEMP:  69; 6HR MAX TEMP:  80;

MARSHALL       MOSUNNY   79  65  63 W8G21     29.90F
MUSKEGON       PTSUNNY   72  63  73 SW9       29.91F
6HR MIN TEMP:  67; 6HR MAX TEMP:  72;

$$
MIZ016>042-131900-
NORTHERN LOWER MICHIGAN

CITY           SKY/WX    TMP DP  RH WIND       PRES   REMARKS
ALPENA         PTSUNNY   76  59  55 W10       29.78R
6HR MIN TEMP:  67; 6HR MAX TEMP:  78;

BEAVER ISLAND  PTSUNNY   67  54  63 NW7       29.83S
6HR MIN TEMP:  61; 6HR MAX TEMP:  69;

BELLAIRE       PTSUNNY   71  58  62 W7        29.83S
6HR MIN TEMP:  64; 6HR MAX TEMP:  71;

CADILLAC       PTSUNNY   73  63  69 W17       29.86S
CHARLEVOIX     MOSUNNY   69  59  71 W12       29.87R
6HR MIN TEMP:  64; 6HR MAX TEMP:  69;

FRANKFORT      CLEAR     73  63  71 W12       29.85F
GAYLORD        PTSUNNY   67  56  67 W14G29    29.84R
6HR MIN TEMP:  62; 6HR MAX TEMP:  71;

GRAYLING       MOSUNNY   73  59  60 W16G23    29.84S
6HR MIN TEMP:  62; 6HR MAX TEMP:  73;

HARBOR SPRINGS MOSUNNY   67  60  79 W6        29.82R
HOUGHTON LAKE  PTSUNNY   73  60  63 W16       29.84S
6HR MIN TEMP:  65; 6HR MAX TEMP:  76;

MANISTEE       SUNNY     72  63  73 W10       29.87F
OSCODA         PTSUNNY   82  57  41 W10G21    29.78F
PELLSTON       MOSUNNY   69  54  58 NW15      29.83R
6HR MIN TEMP:  64; 6HR MAX TEMP:  71;

TRAVERSE CITY  PTSUNNY   73  57  57 W14       29.82S
6HR MIN TEMP:  65; 6HR MAX TEMP:  75;

$$
MIZ007>008-015-131900-
EASTERN UPPER MICHIGAN

CITY           SKY/WX    TMP DP  RH WIND       PRES   REMARKS
KINROSS        PTSUNNY   66  52  59 W17G24    29.79R
6HR MIN TEMP:  63; 6HR MAX TEMP:  70;

MACKINAC ISLAN CLOUDY    66  52  60 W14G23    29.80R
6HR MIN TEMP:  61; 6HR MAX TEMP:  68;

NEWBERRY       SUNNY     65  48  55 W15G26    29.82R
6HR MIN TEMP:  60; 6HR MAX TEMP:  65;

S. S. MARIE    PTSUNNY   62  50  64 NW16G23   29.80R
6HR MIN TEMP:  57; 6HR MAX TEMP:  66;

$$
MIZ004>006-011>014-085-131900-
CENTRAL UPPER MICHIGAN

CITY           SKY/WX    TMP DP  RH WIND       PRES   REMARKS
MANISTIQUE     MOSUNNY   72  52  48 NW13G21   29.81S
ESCANABA       SUNNY     72  45  37 NW15G22   29.82S
6HR MIN TEMP:  63; 6HR MAX TEMP:  72;

MENOMINEE      SUNNY     73  45  35 W8G17     29.84S
6HR MIN TEMP:  61; 6HR MAX TEMP:  73;

SAWYER-GWINN   MOSUNNY   66  45  45 W12G18    29.84S
$$
MIZ001>003-009>011-084-131900-
WESTERN UPPER MICHIGAN

CITY           SKY/WX    TMP DP  RH WIND       PRES   REMARKS
IRON MOUNTAIN  MOSUNNY   71  45  39 W15       29.85S
6HR MIN TEMP:  63; 6HR MAX TEMP:  71;

HOUGHTON       SUNNY     65  47  52 W24G32    29.82S
6HR MIN TEMP:  54; 6HR MAX TEMP:  65;

COPPER HARBOR    N/A     66  48  52 N17G30    29.79F
6HR MIN TEMP:  57; 6HR MAX TEMP:  67;

IRONWOOD       PTSUNNY  N/A N/A N/A W12G17    29.86F
6HR MIN TEMP:  55; 6HR MAX TEMP:  66;

$$

ABBREVIATIONS USED IN REMARKS
   TC - TEMPERATURE IN CELSIUS
  WCI - WIND CHILL INDEX
   HX - HEAT INDEX
  VSB - VISIBILITY



USA.gov is the U.S. government's official web portal to all federal, state and local government web resources and services.